Language: 


Des rapports , des résumés tant et plus, au choix de chacun....


Données statistiques de la station
Quotidien Rapport Janvier 29, 2017 Unités:  Métrique    Anglais   les deux
« Précédent Jour
Suivant Jour »
Quotidien Hebdomadaire Mensuel Annuel Actuel
  Haut: Bas: Moyen:
Température: 8.5 °C 0.0 °C 4.9 °C
Pt de rosée: 6.2 °C 1.8 °C 4.1 °C
Humidité: 98 % 0 % 94 %
Vitesse du vent: 32.3 km/h 0.0 km/h 11.6 km/h
Rafales: 37.8 km/h - -
Vent:- - SSW
Pression: 1018.2 hPa 0.0 hPa -
Précipitation: 7.4 mm    
Historical Graphs
 
 
Données statistiques pour Janvier 29, 2017
Heure Température Point de rosée Pression Vent Vitesse du vent Refales Humidité Pluie (taux horaire)
00:04 4.0 °C 3.4 °C 1016.1 hPa Calm   10.1 km/h 96 % 0.0 mm
00:09 4.0 °C 3.4 °C 1016.1 hPa SSW 10.1 km/h 10.5 km/h 96 % 0.0 mm
00:14 4.1 °C 3.6 °C 1016.1 hPa South 9.3 km/h 10.8 km/h 96 % 0.0 mm
00:19 4.1 °C 3.6 °C 1016.1 hPa SSW 6.4 km/h 11.6 km/h 96 % 0.0 mm
00:24 4.0 °C 3.4 °C 1016.1 hPa South 9.3 km/h 11.6 km/h 96 % 0.0 mm
00:30 4.0 °C 3.4 °C 1016.1 hPa South 11.9 km/h 11.9 km/h 96 % 0.0 mm
00:35 4.0 °C 3.4 °C 1016.1 hPa South 6.9 km/h 12.6 km/h 96 % 0.0 mm
00:40 4.0 °C 3.4 °C 1016.1 hPa SSW 6.9 km/h 14.0 km/h 96 % 0.0 mm
00:45 4.1 °C 3.6 °C 1016.1 hPa SSW 4.7 km/h 14.0 km/h 96 % 0.0 mm
00:51 4.1 °C 3.6 °C 1016.1 hPa South 1.8 km/h 12.2 km/h 96 % 0.0 mm
00:56 4.1 °C 3.6 °C 1016.1 hPa South 5.0 km/h 10.1 km/h 96 % 0.0 mm
01:01 4.0 °C 3.4 °C 1016.1 hPa South 9.0 km/h 10.8 km/h 96 % 0.0 mm
01:06 4.0 °C 3.4 °C 1016.1 hPa SSW 6.9 km/h 10.8 km/h 96 % 0.0 mm
01:11 4.0 °C 3.4 °C 1015.1 hPa SSW 6.9 km/h 10.5 km/h 96 % 0.0 mm
01:16 3.9 °C 3.3 °C 1015.1 hPa SSW 10.1 km/h 10.1 km/h 96 % 0.0 mm
01:21 3.9 °C 3.3 °C 1015.1 hPa South 6.9 km/h 10.1 km/h 96 % 0.0 mm
01:26 3.9 °C 3.3 °C 1015.1 hPa South 2.6 km/h 8.7 km/h 96 % 0.0 mm
01:31 3.9 °C 3.3 °C 1015.1 hPa South 9.3 km/h 9.3 km/h 96 % 0.0 mm
01:36 4.0 °C 3.4 °C 1015.1 hPa SSW 7.9 km/h 10.5 km/h 96 % 0.0 mm
01:41 4.0 °C 3.4 °C 1015.1 hPa SSW 5.8 km/h 10.5 km/h 96 % 0.0 mm
01:46 4.0 °C 3.4 °C 1015.1 hPa SSW 7.9 km/h 9.0 km/h 96 % 0.0 mm
01:51 4.0 °C 3.4 °C 1015.1 hPa South 6.4 km/h 9.3 km/h 96 % 0.0 mm
01:56 4.0 °C 3.4 °C 1015.1 hPa WSW 8.7 km/h 10.1 km/h 96 % 0.0 mm
02:02 0.0 °C 3.5 °C 0.0 hPa SSW 9.3 km/h 9.3 km/h 0 % 0.0 mm
02:07 4.1 °C 3.6 °C 1015.1 hPa SSW 6.4 km/h 11.6 km/h 96 % 0.0 mm
02:12 4.2 °C 3.6 °C 1015.1 hPa South 7.9 km/h 11.6 km/h 96 % 0.0 mm
02:17 4.2 °C 3.6 °C 1015.1 hPa SSW 5.5 km/h 11.6 km/h 96 % 0.0 mm
02:22 4.1 °C 3.6 °C 1015.1 hPa SW 10.5 km/h 12.2 km/h 96 % 0.0 mm
02:27 4.2 °C 3.6 °C 1015.1 hPa SSW 6.9 km/h 13.7 km/h 96 % 0.0 mm
02:32 4.2 °C 3.6 °C 1015.1 hPa SW 7.9 km/h 16.3 km/h 96 % 0.0 mm
02:37 4.2 °C 3.6 °C 1015.1 hPa South 9.0 km/h 16.3 km/h 96 % 0.0 mm
02:42 4.2 °C 3.6 °C 1015.1 hPa SSW 5.8 km/h 11.9 km/h 96 % 0.0 mm
02:52 4.1 °C 3.6 °C 1015.1 hPa SSW 4.7 km/h 9.3 km/h 96 % 0.0 mm
02:57 4.0 °C 3.4 °C 1015.1 hPa SSW 6.1 km/h 9.0 km/h 96 % 0.0 mm
03:02 3.9 °C 3.3 °C 1015.1 hPa SSW 6.1 km/h 8.7 km/h 96 % 0.0 mm
03:07 3.9 °C 3.3 °C 1015.1 hPa Calm   9.0 km/h 96 % 0.0 mm
03:12 3.7 °C 3.2 °C 1015.1 hPa South 5.8 km/h 9.0 km/h 96 % 0.0 mm
03:17 3.6 °C 3.1 °C 1015.1 hPa South 6.1 km/h 7.6 km/h 96 % 0.0 mm
03:22 3.6 °C 2.9 °C 1015.1 hPa South 6.4 km/h 9.0 km/h 96 % 0.0 mm
03:27 3.6 °C 2.9 °C 1015.1 hPa South 6.4 km/h 9.3 km/h 96 % 0.0 mm
03:37 3.6 °C 3.1 °C 1015.1 hPa South 7.9 km/h 11.6 km/h 97 % 0.0 mm
03:42 3.6 °C 3.2 °C 1015.1 hPa SSW 7.9 km/h 11.9 km/h 97 % 0.0 mm
03:47 3.7 °C 3.3 °C 1015.1 hPa South 9.7 km/h 15.1 km/h 97 % 0.0 mm
03:52 3.7 °C 3.3 °C 1015.1 hPa South 9.0 km/h 15.1 km/h 97 % 0.0 mm
03:57 3.6 °C 3.2 °C 1015.1 hPa SSW 6.4 km/h 14.0 km/h 97 % 0.0 mm
04:02 3.6 °C 3.2 °C 1015.1 hPa SSW 6.4 km/h 13.7 km/h 97 % 0.0 mm
04:07 3.6 °C 3.2 °C 1014.1 hPa SSW 5.0 km/h 12.6 km/h 97 % 0.0 mm
04:12 3.6 °C 3.2 °C 1014.1 hPa SSW 7.6 km/h 12.6 km/h 97 % 0.0 mm
04:17 3.6 °C 3.2 °C 1014.1 hPa SW 4.3 km/h 12.6 km/h 97 % 0.0 mm
04:22 3.6 °C 3.2 °C 1015.1 hPa SSW 6.4 km/h 10.5 km/h 97 % 0.0 mm
04:27 3.6 °C 3.2 °C 1015.1 hPa South 6.9 km/h 10.5 km/h 97 % 0.0 mm
04:32 3.6 °C 3.2 °C 1015.1 hPa South 6.4 km/h 9.3 km/h 97 % 0.0 mm
04:37 3.6 °C 3.1 °C 1015.1 hPa WSW 12.2 km/h 12.2 km/h 97 % 0.0 mm
04:42 3.6 °C 3.1 °C 1015.1 hPa SSW 6.9 km/h 12.2 km/h 97 % 0.0 mm
04:47 3.4 °C 3.0 °C 1015.1 hPa SW 5.8 km/h 9.7 km/h 97 % 0.0 mm
04:52 3.3 °C 2.9 °C 1015.1 hPa SSW 4.0 km/h 9.7 km/h 97 % 0.0 mm
04:57 3.3 °C 2.9 °C 1015.1 hPa SSW 5.5 km/h 11.1 km/h 97 % 0.0 mm
05:02 3.2 °C 2.8 °C 1015.1 hPa SSW 6.9 km/h 11.1 km/h 97 % 0.0 mm
05:07 3.2 °C 2.8 °C 1015.1 hPa SSW 5.8 km/h 10.1 km/h 97 % 0.0 mm
05:12 3.2 °C 2.8 °C 1016.1 hPa SW 9.0 km/h 9.3 km/h 97 % 0.0 mm
05:17 3.1 °C 2.7 °C 1016.1 hPa SW 6.4 km/h 9.0 km/h 97 % 0.0 mm
05:22 3.1 °C 2.6 °C 1015.1 hPa SSW 3.2 km/h 9.0 km/h 97 % 0.0 mm
05:27 2.9 °C 2.5 °C 1015.1 hPa SSW 3.2 km/h 6.9 km/h 97 % 0.0 mm
05:32 2.9 °C 2.5 °C 1015.1 hPa SSW 4.7 km/h 6.1 km/h 97 % 0.0 mm
05:37 2.7 °C 2.3 °C 1015.1 hPa Calm   6.1 km/h 97 % 0.0 mm
05:42 2.7 °C 2.3 °C 1015.1 hPa Calm   6.4 km/h 97 % 0.0 mm
05:47 2.7 °C 2.3 °C 1015.1 hPa SSW 2.6 km/h 7.9 km/h 97 % 0.0 mm
05:52 2.7 °C 2.3 °C 1015.1 hPa SW 4.7 km/h 7.9 km/h 97 % 0.0 mm
05:57 2.7 °C 2.2 °C 1015.1 hPa South 5.8 km/h 8.7 km/h 97 % 0.0 mm
06:02 2.7 °C 2.2 °C 1015.1 hPa SW 4.0 km/h 9.0 km/h 97 % 0.0 mm
06:07 2.7 °C 2.2 °C 1015.1 hPa SSW 2.6 km/h 9.0 km/h 97 % 0.0 mm
06:12 2.7 °C 2.2 °C 1015.1 hPa SSW 5.8 km/h 8.7 km/h 97 % 0.0 mm
06:17 2.7 °C 2.2 °C 1015.1 hPa SW 4.3 km/h 9.7 km/h 97 % 0.0 mm
06:22 2.7 °C 2.2 °C 1016.1 hPa South 2.1 km/h 9.7 km/h 97 % 0.0 mm
06:27 2.7 °C 2.4 °C 1016.1 hPa SSW 7.6 km/h 10.1 km/h 98 % 0.0 mm
06:32 2.7 °C 2.4 °C 1016.1 hPa South 1.8 km/h 11.6 km/h 98 % 0.0 mm
06:42 2.6 °C 2.3 °C 1016.1 hPa South 6.4 km/h 9.3 km/h 98 % 0.0 mm
06:47 2.6 °C 2.3 °C 1016.1 hPa SW 4.7 km/h 9.3 km/h 98 % 0.0 mm
06:52 2.3 °C 1.9 °C 1016.1 hPa SW 5.0 km/h 9.3 km/h 97 % 0.0 mm
06:57 2.3 °C 1.9 °C 1016.1 hPa SSW 5.5 km/h 6.4 km/h 97 % 0.0 mm
07:02 2.3 °C 1.9 °C 1016.1 hPa SSW 7.2 km/h 9.0 km/h 97 % 0.0 mm
07:07 2.3 °C 1.8 °C 1016.1 hPa Calm   9.0 km/h 97 % 0.0 mm
07:12 2.3 °C 1.8 °C 1016.1 hPa SSW 5.8 km/h 7.6 km/h 97 % 0.0 mm
07:17 2.3 °C 1.9 °C 1016.1 hPa South 11.9 km/h 11.9 km/h 98 % 0.0 mm
07:22 2.3 °C 1.9 °C 1016.1 hPa South 5.0 km/h 12.6 km/h 98 % 0.0 mm
07:27 2.3 °C 2.1 °C 1016.1 hPa SSW 13.7 km/h 13.7 km/h 98 % 0.0 mm
07:32 2.3 °C 2.1 °C 1016.1 hPa South 10.1 km/h 13.7 km/h 98 % 0.0 mm
07:37 2.3 °C 1.9 °C 1016.1 hPa SSW 9.0 km/h 13.0 km/h 98 % 0.0 mm
07:42 2.3 °C 1.9 °C 1016.1 hPa SSW 6.1 km/h 12.6 km/h 98 % 0.0 mm
07:47 2.3 °C 1.9 °C 1016.1 hPa South 4.3 km/h 10.5 km/h 98 % 0.0 mm
07:52 2.2 °C 1.9 °C 1016.8 hPa SW 9.0 km/h 10.5 km/h 98 % 0.0 mm
07:57 2.3 °C 1.9 °C 1016.8 hPa SSW 9.3 km/h 10.1 km/h 98 % 0.0 mm
07:58 2.3 °C 1.9 °C 1016.8 hPa SSW 6.9 km/h 10.1 km/h 98 % 0.0 mm
08:03 2.3 °C 1.9 °C 1016.8 hPa SSW 6.9 km/h 11.9 km/h 98 % 0.0 mm
08:08 2.3 °C 2.1 °C 1016.8 hPa South 6.9 km/h 11.9 km/h 98 % 0.0 mm
08:13 2.3 °C 2.1 °C 1016.8 hPa South 6.1 km/h 12.2 km/h 98 % 0.0 mm
08:23 2.3 °C 2.1 °C 1016.8 hPa SSW 10.5 km/h 13.7 km/h 98 % 0.0 mm
08:28 2.3 °C 2.1 °C 1016.8 hPa SSW 6.1 km/h 13.0 km/h 98 % 0.0 mm
08:33 2.4 °C 2.2 °C 1016.8 hPa South 6.9 km/h 12.2 km/h 98 % 0.0 mm
08:38 2.4 °C 2.2 °C 1016.8 hPa South 6.4 km/h 12.2 km/h 98 % 0.0 mm
08:43 2.6 °C 2.3 °C 1016.8 hPa SSW 9.0 km/h 12.2 km/h 98 % 0.0 mm
08:48 2.4 °C 2.2 °C 1016.8 hPa SSW 9.7 km/h 12.6 km/h 98 % 0.0 mm
08:53 2.6 °C 2.3 °C 1016.8 hPa South 9.7 km/h 16.3 km/h 98 % 0.0 mm
09:03 2.6 °C 2.3 °C 1016.8 hPa SSW 11.6 km/h 12.2 km/h 98 % 0.0 mm
09:08 2.6 °C 2.3 °C 1016.8 hPa SSW 6.4 km/h 14.0 km/h 98 % 0.0 mm
09:13 2.7 °C 2.4 °C 1016.8 hPa SSW 11.9 km/h 14.0 km/h 98 % 0.0 mm
09:18 2.7 °C 2.4 °C 1016.8 hPa SSW 10.5 km/h 14.0 km/h 98 % 0.0 mm
09:23 2.7 °C 2.4 °C 1016.8 hPa SSW 8.7 km/h 14.0 km/h 98 % 0.0 mm
09:25 2.7 °C 2.4 °C 1016.8 hPa SSW 9.7 km/h 14.0 km/h 98 % 0.0 mm
09:30 2.7 °C 2.4 °C 1016.8 hPa South 9.0 km/h 14.0 km/h 98 % 0.0 mm
09:35 2.8 °C 2.6 °C 1016.8 hPa SSW 9.0 km/h 16.9 km/h 98 % 0.0 mm
09:40 2.9 °C 2.7 °C 1016.8 hPa SSW 9.0 km/h 16.9 km/h 98 % 0.0 mm
09:45 2.9 °C 2.7 °C 1016.8 hPa South 12.6 km/h 16.3 km/h 98 % 0.0 mm
09:50 3.1 °C 2.8 °C 1016.8 hPa SSW 7.9 km/h 17.7 km/h 98 % 0.0 mm
09:55 3.1 °C 2.8 °C 1016.8 hPa SSW 9.0 km/h 17.7 km/h 98 % 0.0 mm
10:00 3.1 °C 2.8 °C 1016.8 hPa South 8.7 km/h 14.0 km/h 98 % 0.0 mm
10:05 3.2 °C 2.9 °C 1016.8 hPa SW 7.9 km/h 16.9 km/h 98 % 0.0 mm
10:10 3.3 °C 3.1 °C 1016.8 hPa South 12.6 km/h 16.9 km/h 98 % 0.0 mm
10:15 3.6 °C 3.3 °C 1016.8 hPa South 6.9 km/h 14.3 km/h 98 % 0.0 mm
10:20 3.8 °C 3.6 °C 1016.8 hPa SW 13.0 km/h 16.3 km/h 98 % 0.0 mm
10:25 4.0 °C 3.7 °C 1016.8 hPa SSW 15.8 km/h 16.3 km/h 98 % 0.0 mm
10:30 4.1 °C 3.8 °C 1016.8 hPa SSW 14.0 km/h 20.6 km/h 98 % 0.0 mm
10:35 4.3 °C 4.0 °C 1016.8 hPa SSW 10.8 km/h 20.6 km/h 98 % 0.0 mm
10:40 4.6 °C 4.3 °C 1016.8 hPa South 9.7 km/h 20.9 km/h 98 % 0.0 mm
10:45 4.7 °C 4.4 °C 1016.8 hPa South 9.0 km/h 20.9 km/h 98 % 0.0 mm
10:50 5.1 °C 4.8 °C 1016.8 hPa South 9.3 km/h 17.2 km/h 98 % 0.0 mm
10:55 5.5 °C 5.2 °C 1016.8 hPa SSW 20.6 km/h 20.6 km/h 98 % 0.0 mm
11:00 5.5 °C 5.2 °C 1016.8 hPa South 12.2 km/h 20.6 km/h 98 % 0.0 mm
11:10 5.5 °C 5.1 °C 1016.8 hPa South 16.9 km/h 20.6 km/h 97 % 0.0 mm
11:15 5.6 °C 5.2 °C 1016.8 hPa South 9.7 km/h 24.5 km/h 97 % 0.0 mm
11:20 5.9 °C 5.3 °C 1016.8 hPa SSW 11.6 km/h 24.5 km/h 96 % 0.0 mm
11:25 6.2 °C 5.6 °C 1016.1 hPa South 9.0 km/h 22.4 km/h 96 % 0.0 mm
11:30 6.3 °C 5.7 °C 1016.1 hPa South 16.6 km/h 17.7 km/h 96 % 0.0 mm
11:35 6.4 °C 5.8 °C 1016.1 hPa SSE 14.0 km/h 20.9 km/h 96 % 0.0 mm
11:40 6.4 °C 5.6 °C 1016.1 hPa SSW 16.9 km/h 21.2 km/h 94 % 0.0 mm
11:45 6.3 °C 5.2 °C 1016.1 hPa South 13.7 km/h 21.6 km/h 93 % 0.0 mm
11:50 6.4 °C 5.2 °C 1016.1 hPa South 13.7 km/h 26.2 km/h 92 % 0.0 mm
11:55 6.6 °C 5.3 °C 1016.8 hPa South 11.9 km/h 26.2 km/h 92 % 0.0 mm
12:00 6.7 °C 5.3 °C 1016.8 hPa SSW 9.7 km/h 20.1 km/h 91 % 0.0 mm
12:05 6.8 °C 5.2 °C 1016.8 hPa SSW 17.7 km/h 20.1 km/h 90 % 0.0 mm
12:16 7.1 °C 5.4 °C 1016.8 hPa SSW 16.6 km/h 20.1 km/h 89 % 0.0 mm
12:21 7.1 °C 5.2 °C 1016.8 hPa SSW 12.6 km/h 23.8 km/h 88 % 0.0 mm
12:26 6.9 °C 4.9 °C 1016.8 hPa SSE 15.8 km/h 23.8 km/h 87 % 0.0 mm
12:31 6.9 °C 4.9 °C 1016.8 hPa South 9.7 km/h 31.4 km/h 87 % 0.0 mm
12:41 6.7 °C 4.8 °C 1016.8 hPa South 17.2 km/h 20.6 km/h 88 % 0.0 mm
12:46 6.9 °C 5.1 °C 1016.8 hPa South 14.3 km/h 17.7 km/h 88 % 0.0 mm
12:51 7.2 °C 5.3 °C 1016.8 hPa SSW 16.9 km/h 17.7 km/h 88 % 0.0 mm
12:56 7.3 °C 5.5 °C 1018.2 hPa South 16.9 km/h 17.2 km/h 88 % 0.0 mm
13:01 7.4 °C 5.4 °C 1018.2 hPa SSW 17.2 km/h 24.5 km/h 87 % 0.0 mm
13:06 7.6 °C 5.3 °C 1018.2 hPa SSE 9.3 km/h 24.5 km/h 86 % 0.0 mm
13:11 7.7 °C 5.4 °C 1016.8 hPa SSW 13.0 km/h 25.9 km/h 86 % 0.0 mm
13:16 7.6 °C 5.2 °C 1016.8 hPa South 9.7 km/h 25.9 km/h 85 % 0.0 mm
13:21 7.7 °C 5.3 °C 1016.8 hPa South 12.2 km/h 20.9 km/h 85 % 0.0 mm
13:31 7.8 °C 5.3 °C 1016.8 hPa South 20.9 km/h 20.9 km/h 84 % 0.0 mm
13:36 7.9 °C 5.2 °C 1016.8 hPa SSW 15.8 km/h 20.9 km/h 83 % 0.0 mm
13:41 8.1 °C 5.3 °C 1016.8 hPa SW 12.6 km/h 20.9 km/h 83 % 0.0 mm
13:46 8.2 °C 5.5 °C 1016.8 hPa SSW 9.0 km/h 19.1 km/h 83 % 0.0 mm
13:51 8.3 °C 5.6 °C 1016.8 hPa South 9.7 km/h 20.1 km/h 83 % 0.0 mm
13:56 8.3 °C 5.4 °C 1016.1 hPa South 16.9 km/h 20.1 km/h 82 % 0.0 mm
14:01 8.5 °C 5.6 °C 1016.1 hPa SSW 17.7 km/h 19.5 km/h 82 % 0.0 mm
14:06 8.5 °C 5.6 °C 1016.1 hPa SSW 8.7 km/h 17.7 km/h 82 % 0.0 mm
14:11 8.5 °C 5.6 °C 1016.1 hPa SSE 12.6 km/h 19.8 km/h 82 % 0.0 mm
14:16 8.5 °C 5.4 °C 1016.1 hPa South 13.7 km/h 19.8 km/h 81 % 0.0 mm
14:21 8.2 °C 5.0 °C 1016.1 hPa South 14.0 km/h 22.7 km/h 80 % 0.0 mm
14:26 8.2 °C 5.3 °C 1016.1 hPa SSW 11.1 km/h 22.7 km/h 82 % 0.0 mm
14:31 8.1 °C 5.2 °C 1016.1 hPa SSW 23.0 km/h 23.0 km/h 82 % 0.0 mm
14:36 8.1 °C 5.2 °C 1016.1 hPa South 17.2 km/h 23.0 km/h 82 % 0.0 mm
14:41 7.7 °C 4.8 °C 1016.1 hPa SSW 19.8 km/h 23.3 km/h 82 % 0.0 mm
14:46 7.7 °C 4.8 °C 1016.1 hPa South 16.6 km/h 23.3 km/h 82 % 0.0 mm
15:01 7.3 °C 4.6 °C 1016.1 hPa SSW 22.4 km/h 22.4 km/h 83 % 0.0 mm
15:06 7.3 °C 4.7 °C 1016.1 hPa SSW 15.8 km/h 22.4 km/h 84 % 0.0 mm
15:11 7.3 °C 4.9 °C 1016.1 hPa SSW 12.6 km/h 18.3 km/h 85 % 0.0 mm
15:16 7.2 °C 4.6 °C 1016.1 hPa SSW 10.1 km/h 17.7 km/h 84 % 0.0 mm
15:21 6.9 °C 4.4 °C 1016.1 hPa SSW 11.9 km/h 17.7 km/h 84 % 0.0 mm
15:26 6.7 °C 4.3 °C 1016.1 hPa South 10.5 km/h 20.9 km/h 85 % 0.0 mm
15:31 6.7 °C 4.3 °C 1016.1 hPa SSW 15.4 km/h 20.9 km/h 85 % 0.0 mm
15:36 6.7 °C 4.5 °C 1016.1 hPa South 13.0 km/h 17.7 km/h 86 % 0.0 mm
15:46 6.7 °C 4.5 °C 1016.1 hPa SSW 13.7 km/h 21.9 km/h 86 % 0.0 mm
15:51 6.7 °C 4.5 °C 1016.1 hPa South 15.8 km/h 24.8 km/h 86 % 0.0 mm
15:56 6.6 °C 4.4 °C 1016.1 hPa South 13.7 km/h 24.8 km/h 86 % 0.0 mm
16:01 6.4 °C 4.3 °C 1016.1 hPa South 13.7 km/h 23.8 km/h 86 % 0.0 mm
16:06 6.4 °C 4.2 °C 1016.1 hPa SSW 16.6 km/h 19.8 km/h 86 % 0.0 mm
16:13 6.2 °C 4.0 °C 1016.1 hPa SSW 16.9 km/h 24.5 km/h 86 % 0.0 mm
16:18 6.1 °C 4.1 °C 1016.1 hPa South 17.2 km/h 24.5 km/h 87 % 0.0 mm
16:22 6.0 °C 4.0 °C 1015.1 hPa SSW 14.0 km/h 20.9 km/h 87 % 0.0 mm
16:28 6.0 °C 4.0 °C 1015.1 hPa South 12.2 km/h 19.5 km/h 87 % 0.0 mm
16:32 6.0 °C 4.2 °C 1015.1 hPa South 14.8 km/h 18.0 km/h 88 % 0.0 mm
16:37 6.0 °C 4.2 °C 1016.1 hPa SSW 14.0 km/h 17.7 km/h 88 % 0.0 mm
16:42 6.0 °C 4.3 °C 1016.1 hPa SSW 15.1 km/h 22.4 km/h 89 % 0.0 mm
16:47 5.9 °C 4.2 °C 1016.1 hPa SSW 19.5 km/h 22.4 km/h 89 % 0.0 mm
16:53 5.9 °C 4.2 °C 1016.1 hPa South 17.7 km/h 20.9 km/h 89 % 0.0 mm
16:57 5.9 °C 4.4 °C 1016.1 hPa South 8.7 km/h 20.9 km/h 90 % 0.0 mm
17:02 5.8 °C 4.3 °C 1016.1 hPa SSW 15.8 km/h 24.5 km/h 90 % 0.0 mm
17:07 5.8 °C 4.4 °C 1015.1 hPa SSE 9.0 km/h 24.5 km/h 91 % 0.0 mm
17:12 5.8 °C 4.4 °C 1015.1 hPa South 13.0 km/h 23.3 km/h 91 % 0.0 mm
17:17 5.8 °C 4.4 °C 1015.1 hPa South 13.0 km/h 23.3 km/h 91 % 0.0 mm
17:23 5.8 °C 4.6 °C 1015.1 hPa South 15.4 km/h 20.9 km/h 92 % 0.0 mm
17:28 5.8 °C 4.6 °C 1015.1 hPa South 16.3 km/h 20.9 km/h 92 % 0.0 mm
17:33 5.7 °C 4.5 °C 1015.1 hPa South 12.6 km/h 20.9 km/h 92 % 0.0 mm
17:38 5.7 °C 4.5 °C 1015.1 hPa South 15.8 km/h 19.8 km/h 92 % 0.0 mm
17:43 5.7 °C 4.5 °C 1015.1 hPa SSE 13.7 km/h 24.5 km/h 92 % 0.0 mm
17:48 5.7 °C 4.7 °C 1015.1 hPa South 13.0 km/h 24.5 km/h 93 % 0.0 mm
17:53 5.7 °C 4.7 °C 1015.1 hPa South 9.7 km/h 20.9 km/h 93 % 0.0 mm
17:58 5.6 °C 4.6 °C 1015.1 hPa SSE 20.9 km/h 23.3 km/h 93 % 0.0 mm
18:03 5.6 °C 4.6 °C 1015.1 hPa South 12.2 km/h 24.5 km/h 93 % 0.0 mm
18:08 5.6 °C 4.6 °C 1015.1 hPa SSW 17.2 km/h 24.5 km/h 93 % 0.0 mm
18:13 5.5 °C 4.4 °C 1015.1 hPa South 16.9 km/h 21.6 km/h 93 % 0.0 mm
18:18 5.5 °C 4.4 °C 1015.1 hPa South 13.0 km/h 22.4 km/h 93 % 0.0 mm
18:23 5.5 °C 4.6 °C 1015.1 hPa SSW 20.9 km/h 22.4 km/h 94 % 0.0 mm
18:28 5.5 °C 4.6 °C 1015.1 hPa South 22.7 km/h 25.9 km/h 94 % 0.0 mm
18:33 5.5 °C 4.6 °C 1015.1 hPa SSE 11.9 km/h 25.9 km/h 94 % 0.0 mm
18:38 5.5 °C 4.6 °C 1015.1 hPa SSW 13.7 km/h 22.7 km/h 94 % 0.0 mm
18:43 5.5 °C 4.6 °C 1015.1 hPa SSE 10.1 km/h 24.5 km/h 94 % 0.0 mm
18:48 5.4 °C 4.7 °C 1015.1 hPa South 12.6 km/h 24.5 km/h 95 % 0.0 mm
18:53 5.4 °C 4.7 °C 1014.1 hPa South 16.3 km/h 21.9 km/h 95 % 0.0 mm
18:58 5.4 °C 4.7 °C 1014.1 hPa South 10.1 km/h 20.1 km/h 95 % 0.0 mm
19:03 5.4 °C 4.8 °C 1014.1 hPa SSW 10.5 km/h 21.2 km/h 96 % 0.0 mm
19:08 5.4 °C 4.8 °C 1015.1 hPa SSW 16.9 km/h 21.2 km/h 96 % 0.0 mm
19:13 5.4 °C 4.8 °C 1015.1 hPa South 10.8 km/h 23.0 km/h 96 % 0.0 mm
19:18 5.5 °C 4.9 °C 1015.1 hPa South 15.8 km/h 23.0 km/h 96 % 0.0 mm
19:23 5.5 °C 5.1 °C 1014.1 hPa South 14.0 km/h 24.5 km/h 97 % 0.3 mm
19:28 5.5 °C 5.1 °C 1014.1 hPa SSW 11.9 km/h 24.5 km/h 97 % 0.3 mm
19:33 5.5 °C 5.1 °C 1014.1 hPa South 8.7 km/h 22.7 km/h 97 % 0.3 mm
19:38 5.5 °C 5.1 °C 1015.1 hPa SSW 16.3 km/h 20.6 km/h 97 % 0.8 mm
19:43 5.5 °C 5.1 °C 1015.1 hPa South 12.2 km/h 21.9 km/h 97 % 0.8 mm
19:48 5.5 °C 5.1 °C 1015.1 hPa SSE 20.6 km/h 21.9 km/h 97 % 1.0 mm
19:53 5.5 °C 5.1 °C 1015.1 hPa South 13.7 km/h 25.3 km/h 97 % 1.0 mm
19:58 5.5 °C 5.1 °C 1015.1 hPa SSE 17.2 km/h 25.3 km/h 97 % 1.3 mm
20:03 5.5 °C 5.1 °C 1015.1 hPa South 12.6 km/h 21.2 km/h 97 % 1.3 mm
20:08 5.5 °C 5.1 °C 1015.1 hPa SSE 17.2 km/h 23.0 km/h 97 % 1.5 mm
20:13 5.5 °C 5.2 °C 1015.1 hPa SSW 13.0 km/h 23.0 km/h 98 % 1.5 mm
20:18 5.6 °C 5.3 °C 1015.1 hPa South 11.9 km/h 28.5 km/h 98 % 1.5 mm
20:23 5.6 °C 5.3 °C 1015.1 hPa SSW 14.0 km/h 28.5 km/h 98 % 1.8 mm
20:28 5.6 °C 5.3 °C 1015.1 hPa SSW 16.9 km/h 23.0 km/h 98 % 1.8 mm
20:33 5.6 °C 5.3 °C 1015.1 hPa SSE 14.0 km/h 25.9 km/h 98 % 2.0 mm
20:43 5.7 °C 5.4 °C 1014.1 hPa South 15.4 km/h 31.4 km/h 98 % 2.0 mm
20:48 5.7 °C 5.4 °C 1014.1 hPa South 19.8 km/h 27.7 km/h 98 % 1.8 mm
20:53 5.7 °C 5.4 °C 1014.1 hPa SSE 25.6 km/h 27.7 km/h 98 % 2.0 mm
20:58 5.7 °C 5.4 °C 1014.1 hPa SSW 12.6 km/h 25.6 km/h 98 % 1.8 mm
21:03 5.7 °C 5.4 °C 1014.1 hPa South 6.4 km/h 25.6 km/h 98 % 1.8 mm
21:08 5.7 °C 5.4 °C 1013.1 hPa SSE 10.1 km/h 37.8 km/h 98 % 1.8 mm
21:13 5.8 °C 5.5 °C 1013.1 hPa South 17.7 km/h 37.8 km/h 98 % 1.8 mm
21:18 5.8 °C 5.5 °C 1013.1 hPa SSE 16.3 km/h 35.6 km/h 98 % 1.8 mm
21:23 5.9 °C 5.4 °C 1013.1 hPa SSE 11.9 km/h 24.5 km/h 97 % 1.5 mm
21:33 5.9 °C 5.4 °C 1013.1 hPa South 12.6 km/h 27.0 km/h 97 % 1.5 mm
21:38 5.9 °C 5.4 °C 1013.1 hPa South 12.2 km/h 27.0 km/h 97 % 1.5 mm
21:43 6.0 °C 5.6 °C 1014.1 hPa South 15.8 km/h 23.8 km/h 97 % 1.5 mm
21:48 6.0 °C 5.6 °C 1014.1 hPa SSW 19.8 km/h 27.0 km/h 97 % 1.8 mm
21:53 6.0 °C 5.7 °C 1013.1 hPa SSW 12.6 km/h 27.0 km/h 98 % 1.5 mm
21:58 6.0 °C 5.7 °C 1013.1 hPa South 32.3 km/h 35.2 km/h 98 % 1.8 mm
22:03 6.0 °C 5.7 °C 1013.1 hPa SSE 21.2 km/h 35.2 km/h 98 % 1.5 mm
22:08 6.0 °C 5.7 °C 1013.1 hPa South 23.3 km/h 27.4 km/h 98 % 1.8 mm
22:13 6.0 °C 5.7 °C 1013.1 hPa SSW 10.8 km/h 29.1 km/h 98 % 1.8 mm
22:18 6.0 °C 5.7 °C 1013.1 hPa South 16.3 km/h 29.1 km/h 98 % 1.8 mm
22:23 6.0 °C 5.7 °C 1012.1 hPa South 12.6 km/h 27.4 km/h 98 % 1.8 mm
22:28 6.0 °C 5.7 °C 1012.1 hPa South 23.0 km/h 24.5 km/h 98 % 1.8 mm
22:33 6.0 °C 5.7 °C 1012.1 hPa South 14.3 km/h 23.0 km/h 98 % 1.5 mm
22:43 6.0 °C 5.7 °C 1012.1 hPa SSW 14.3 km/h 30.9 km/h 98 % 1.8 mm
22:48 6.1 °C 5.8 °C 1012.1 hPa SSW 17.7 km/h 25.9 km/h 98 % 1.5 mm
22:53 6.1 °C 5.8 °C 1011.1 hPa South 23.8 km/h 25.3 km/h 98 % 1.5 mm
22:58 6.2 °C 5.9 °C 1011.1 hPa SSW 25.9 km/h 25.9 km/h 98 % 1.8 mm
23:03 6.2 °C 5.9 °C 1011.1 hPa South 19.8 km/h 27.7 km/h 98 % 1.8 mm
23:08 6.3 °C 6.0 °C 1011.1 hPa SSW 20.6 km/h 31.7 km/h 98 % 1.5 mm
23:13 6.3 °C 6.0 °C 1011.1 hPa SSW 28.0 km/h 31.7 km/h 98 % 1.5 mm
23:18 6.4 °C 6.1 °C 1011.1 hPa SSW 28.5 km/h 28.5 km/h 98 % 1.5 mm
23:23 6.4 °C 6.1 °C 1011.1 hPa South 20.1 km/h 29.9 km/h 98 % 1.3 mm
23:28 6.4 °C 6.1 °C 1011.1 hPa SSW 20.1 km/h 29.9 km/h 98 % 2.0 mm
23:33 6.4 °C 6.1 °C 1011.1 hPa South 17.2 km/h 28.5 km/h 98 % 2.0 mm
23:38 6.4 °C 6.1 °C 1011.1 hPa SSW 22.4 km/h 28.5 km/h 98 % 1.8 mm
23:43 6.4 °C 6.1 °C 1011.1 hPa SSW 14.0 km/h 27.4 km/h 98 % 1.5 mm
23:48 6.4 °C 6.1 °C 1011.1 hPa SSW 15.1 km/h 27.4 km/h 98 % 1.5 mm
23:53 6.4 °C 6.2 °C 1011.1 hPa South 28.8 km/h 28.8 km/h 98 % 1.5 mm
Le Gheer Warneton
Courtoisie de Weather Underground - 2.25 mb

Mise a jour : 17-12-17 03:05:15
Généré par Cumulus 1.9.4 (1099)